Wind_Speed
11 12 13 13 12 12 11 10 10 10 9 8 6 5 3 3 1 1 1 1 2 2 3 3 2 2 2 3 4 4 5 5 5 6 6 7 7 7 8 8 8 8 9
10 11 12 12 11 11 11 10 10 10 10 8 7 5 3 3 2 1 2 2 2 3 4 4 4 4 4 4 5 6 6 7 6 7 8 8 9 9 9 10 10 11 11
7 9 10 11 12 11 10 10 9 9 9 8 7 5 4 3 3 2 3 4 3 3 5 5 6 5 6 6 7 8 8 8 8 9 9 10 11 11 12 12 12 12 13
6 7 8 10 11 11 11 10 9 9 8 8 8 7 6 5 4 4 4 5 4 4 5 6 7 7 7 8 9 9 9 10 10 10 11 12 12 13 13 14 14 14 14
7 8 8 10 10 11 10 10 10 10 8 8 8 8 7 6 6 6 7 6 5 5 5 6 7 9 9 10 10 11 11 11 12 12 13 13 14 14 15 15 16 16 16
8 9 10 10 10 10 10 10 9 9 9 8 8 8 8 7 7 8 7 7 6 6 6 7 7 9 10 11 11 12 12 13 13 13 14 14 15 15 16 16 17 18 18
9 9 10 10 10 11 10 10 9 9 9 9 8 8 8 8 9 8 8 7 7 7 8 8 8 10 11 11 11 12 13 13 13 14 15 15 15 16 16 17 18 18 19
10 10 10 11 11 12 11 10 10 9 9 9 9 9 9 9 9 8 8 7 8 8 8 8 9 10 11 11 12 12 12 13 14 14 15 16 16 16 17 17 17 18 19
10 10 11 11 12 12 12 11 10 10 9 9 9 9 9 9 9 9 9 9 10 10 10 9 9 10 11 12 12 13 13 13 13 14 15 15 15 15 16 16 16 17 18
11 12 12 12 13 12 12 12 10 10 10 10 10 10 10 10 10 10 10 10 11 11 11 11 11 11 11 11 12 13 13 13 13 14 14 14 14 15 15 15 15 16 17
12 12 12 13 13 13 14 13 12 11 11 11 11 12 12 11 11 11 12 12 12 11 11 11 11 12 12 13 13 13 14 14 14 14 14 14 15 15 16 16 16 17 18
13 13 13 13 13 14 14 14 14 13 12 12 12 13 13 13 13 14 14 14 13 12 12 12 13 13 13 13 13 13 13 14 14 14 14 15 16 16 17 17 18 19 19
14 14 14 14 14 14 14 15 15 13 12 13 13 14 14 15 15 16 15 15 15 14 14 14 14 14 14 14 13 14 15 14 14 15 15 16 17 18 19 19 20 21 21
15 15 15 15 15 14 15 15 14 13 13 14 14 15 15 16 17 17 16 16 16 16 16 16 15 15 15 15 14 15 15 15 15 16 17 17 18 19 20 21 22 23 23
16 16 15 15 15 15 15 15 14 14 14 14 15 16 17 17 17 17 17 18 18 18 17 17 17 16 16 16 16 16 16 16 17 18 18 19 19 20 21 23 24 25 25
17 16 15 15 16 16 15 15 15 15 15 15 16 17 17 17 17 17 17 18 18 18 18 18 17 16 16 16 16 16 17 17 18 19 19 20 20 21 22 23 24 25 25
17 15 16 17 17 16 16 15 15 15 16 15 16 16 16 16 16 16 16 17 17 16 16 17 17 16 16 16 16 17 17 18 19 20 21 21 21 22 23 23 24 25 25
17 17 17 18 18 16 15 15 15 15 15 15 16 16 16 16 16 16 16 16 17 16 16 16 16 16 16 16 16 17 18 19 20 21 21 22 23 24 24 25 25 26 26
18 17 17 17 16 15 15 15 16 16 15 15 16 16 17 16 16 16 15 15 15 15 15 15 15 16 16 16 16 17 18 19 20 20 21 22 23 24 24 25 26 27 27
18 18 17 15 15 15 15 15 15 15 16 17 17 17 16 16 16 15 14 14 15 15 14 15 15 15 15 15 16 17 18 18 19 20 21 22 23 24 24 25 26 27 27
19 18 17 16 16 16 16 16 16 16 16 17 17 17 16 16 15 14 13 14 14 14 14 13 13 14 15 16 16 17 18 19 20 21 21 22 23 24 25 26 26 27 27
19 18 18 18 18 17 17 16 16 17 17 17 17 17 16 15 14 13 14 14 14 14 14 14 14 15 16 16 17 18 19 19 20 21 23 24 24 25 26 26 26 26 27
21 20 19 18 18 18 17 17 17 17 17 17 17 17 15 14 14 14 14 15 15 15 15 15 15 16 17 17 17 18 18 18 20 22 23 24 25 26 26 26 27 27 28
21 20 20 19 19 19 18 18 18 17 17 16 16 16 15 15 14 14 15 15 15 15 15 15 16 16 17 17 18 18 19 20 21 23 24 25 25 26 26 27 28 28 28
20 20 20 21 20 20 19 18 18 17 17 16 16 16 16 16 16 16 16 16 16 16 16 16 17 17 18 18 19 20 20 21 23 24 25 25 26 27 28 28 28 29 30
21 21 20 21 21 20 19 18 18 17 17 17 16 16 16 16 16 16 16 16 16 17 17 17 18 18 19 19 20 21 22 23 24 25 25 26 27 27 28 29 29 30 30
Wind_Direction
17 16 16 16 17 19 20 22 20 21 23 23 22 26 31 33 35 10 322 280 257 239 257 260 243 244 250 247 249 256 263 267 277 287 291 290 289 289 291 293 294 295 297
16 11 9 10 11 12 13 14 13 17 22 25 19 17 12 2 357 345 324 304 283 267 265 257 252 252 258 258 261 268 272 273 277 283 288 290 291 289 287 289 291 292 293
4 1 359 358 359 360 2 1 6 13 15 13 8 0 354 346 339 321 321 319 302 274 263 263 261 262 263 265 268 272 273 276 278 281 284 285 287 289 288 287 289 290 289
345 350 353 349 348 351 352 348 355 358 3 3 1 360 351 338 322 310 305 307 307 291 281 267 266 265 266 267 270 272 273 276 279 281 283 284 286 287 286 287 287 287 287
321 331 337 336 338 344 344 340 347 349 351 352 356 355 349 333 322 314 306 303 309 304 294 281 273 268 265 267 269 268 270 273 277 279 281 283 286 287 287 287 288 288 287
310 317 322 321 323 332 337 339 336 340 340 338 338 343 341 334 325 321 316 309 303 300 299 292 282 274 267 265 266 269 272 273 276 277 279 282 286 287 287 287 287 288 288
294 306 311 308 311 318 327 331 329 327 328 329 330 330 332 331 329 325 319 312 305 299 296 290 286 278 273 273 273 276 274 274 276 277 279 281 285 285 286 287 287 287 287
289 294 297 303 301 307 316 324 322 320 321 323 322 319 319 322 322 323 326 320 313 306 302 297 294 285 279 278 277 280 279 280 281 281 282 282 285 285 287 289 288 288 288
285 287 293 298 301 305 309 311 312 311 310 313 315 313 315 315 315 312 312 312 311 309 305 303 299 291 287 281 278 281 281 283 285 286 284 284 287 287 288 291 291 290 289
280 282 283 290 296 298 297 298 300 303 304 305 310 313 310 307 306 305 304 305 310 310 303 299 300 296 292 288 282 283 285 283 282 288 291 288 289 292 294 293 293 294 292
281 284 286 289 291 293 295 297 295 294 298 299 302 303 300 298 299 301 302 303 306 309 306 304 301 297 293 290 285 285 286 286 283 285 287 287 287 289 291 292 294 295 293
283 286 286 287 290 293 293 294 294 289 289 292 295 298 295 294 296 296 298 299 301 302 302 302 301 300 297 291 288 289 289 289 286 284 286 289 290 289 290 293 295 296 295
280 287 289 289 292 292 291 292 292 289 289 290 291 295 296 294 293 292 295 295 296 296 296 297 298 298 298 294 289 289 289 290 291 290 289 290 290 289 290 292 294 295 296
280 283 288 292 292 292 291 291 291 290 288 288 290 293 293 292 292 290 290 291 292 291 289 291 294 295 293 290 288 289 289 290 293 293 293 293 294 293 292 293 294 295 295
277 282 287 293 293 294 294 293 293 294 292 292 293 293 294 294 290 289 288 288 288 288 287 289 292 290 287 285 284 286 288 288 290 292 294 296 296 295 293 293 294 294 295
277 280 284 289 293 294 294 292 292 292 292 293 295 295 293 292 291 290 289 288 288 288 288 288 288 288 287 287 284 284 285 288 291 294 296 296 296 296 295 295 295 295 297
277 282 285 288 291 293 292 288 288 290 290 292 296 293 292 292 294 291 291 291 289 289 289 289 287 287 290 289 284 284 286 287 289 292 294 295 294 296 296 296 297 297 296
275 281 284 287 289 291 293 290 288 289 292 292 295 293 292 292 292 291 294 293 289 287 288 290 290 288 288 288 285 285 288 287 289 291 293 294 294 296 297 298 297 297 296
275 281 284 286 286 289 292 292 290 289 290 291 294 296 294 293 294 294 292 293 294 290 287 287 290 291 288 289 287 285 289 291 293 294 295 296 297 298 298 298 297 297 297
272 277 283 284 286 288 290 291 292 289 289 290 291 293 295 297 296 297 295 295 295 292 289 289 289 292 292 290 291 290 292 294 296 299 300 300 300 300 300 299 300 299 300
269 274 280 285 286 287 289 289 289 291 291 290 290 291 296 300 298 297 298 296 295 295 294 294 294 295 296 297 300 300 300 300 300 302 304 303 303 302 302 303 303 303 303
267 271 278 284 285 287 290 290 291 291 293 291 290 291 293 294 295 295 296 296 295 294 294 294 296 299 301 302 302 304 304 303 304 305 307 306 305 305 306 307 307 306 305
265 269 275 280 283 285 288 288 289 290 291 292 291 293 291 289 290 292 294 295 297 295 293 293 294 297 300 301 302 305 306 307 309 310 310 310 309 309 309 309 309 308 307
260 266 272 276 278 280 281 284 286 289 290 290 289 290 288 287 289 292 293 295 296 296 297 297 296 298 300 302 303 305 307 309 310 311 311 310 310 311 311 310 310 309 309
259 264 270 273 273 274 277 281 282 282 286 286 286 287 286 286 287 289 291 293 294 298 298 298 298 300 300 301 302 305 306 308 310 311 311 311 311 312 312 312 311 311 311
258 264 267 271 274 273 274 278 281 281 281 284 286 286 287 288 287 289 290 293 295 296 297 297 299 301 301 301 302 304 306 308 310 311 311 311 312 313 313 313 312 311 312
Height
5925 5923 5922 5920 5919 5917 5916 5914 5913 5911 5909 5908 5907 5907 5906 5906 5905 5905 5905 5905 5905 5905 5905 5905 5905 5905 5906 5906 5906 5906 5907 5907 5907 5907 5907 5907 5906 5906 5905 5905 5905 5904 5904
5925 5924 5923 5921 5920 5918 5917 5915 5914 5912 5910 5909 5908 5907 5907 5906 5906 5905 5905 5904 5904 5904 5905 5905 5905 5905 5905 5905 5905 5905 5905 5905 5906 5906 5905 5905 5905 5904 5904 5903 5903 5903 5902
5925 5924 5923 5922 5920 5919 5917 5916 5914 5913 5912 5910 5909 5908 5907 5906 5906 5905 5904 5904 5904 5903 5903 5903 5903 5904 5904 5904 5904 5904 5904 5904 5904 5904 5904 5903 5903 5902 5902 5901 5901 5900 5900
5924 5923 5922 5921 5919 5918 5917 5916 5914 5912 5911 5910 5909 5908 5907 5906 5905 5904 5904 5903 5903 5902 5902 5902 5902 5902 5902 5902 5902 5902 5902 5902 5902 5901 5901 5901 5901 5900 5899 5899 5898 5897 5897
5923 5922 5922 5920 5919 5917 5916 5915 5914 5912 5910 5910 5909 5908 5907 5906 5905 5904 5903 5902 5901 5901 5900 5900 5900 5900 5900 5900 5900 5900 5900 5900 5900 5899 5899 5898 5898 5897 5896 5896 5895 5894 5893
5922 5922 5921 5920 5918 5916 5915 5914 5913 5912 5911 5910 5908 5907 5906 5905 5904 5903 5902 5901 5900 5900 5899 5899 5898 5898 5898 5897 5897 5898 5898 5897 5897 5896 5896 5895 5895 5894 5893 5892 5891 5890 5890
5921 5920 5920 5919 5917 5915 5914 5913 5912 5911 5910 5909 5907 5907 5905 5904 5903 5902 5901 5900 5899 5898 5898 5897 5896 5896 5895 5895 5895 5895 5895 5894 5894 5893 5893 5892 5891 5890 5889 5888 5887 5886 5885
5919 5919 5918 5917 5916 5915 5913 5912 5911 5910 5909 5908 5906 5905 5904 5903 5902 5901 5900 5898 5897 5897 5896 5895 5894 5893 5893 5892 5892 5892 5891 5891 5890 5890 5889 5888 5888 5886 5885 5884 5883 5882 5881
5917 5917 5916 5915 5914 5913 5912 5911 5910 5909 5907 5906 5905 5904 5903 5902 5901 5900 5898 5897 5895 5894 5894 5893 5892 5891 5891 5890 5890 5889 5888 5887 5887 5886 5886 5885 5884 5883 5882 5881 5880 5879 5877
5915 5914 5913 5912 5912 5911 5910 5908 5907 5906 5905 5904 5903 5902 5901 5900 5899 5898 5897 5895 5894 5892 5891 5891 5890 5889 5888 5887 5887 5886 5885 5884 5884 5883 5882 5881 5880 5880 5878 5877 5876 5875 5873
5911 5911 5910 5910 5909 5908 5907 5906 5905 5903 5903 5902 5901 5900 5899 5898 5897 5896 5895 5894 5892 5891 5889 5888 5887 5886 5885 5885 5884 5883 5882 5881 5880 5880 5879 5878 5877 5876 5875 5874 5872 5871 5869
5908 5908 5907 5907 5906 5905 5905 5904 5903 5901 5900 5899 5898 5897 5896 5895 5894 5894 5892 5891 5890 5888 5887 5886 5885 5884 5883 5882 5881 5880 5879 5878 5877 5876 5875 5874 5873 5872 5871 5870 5868 5866 5865
5906 5905 5904 5903 5903 5902 5901 5901 5899 5898 5897 5896 5896 5895 5893 5892 5891 5891 5889 5888 5887 5886 5885 5883 5882 5881 5880 5879 5877 5876 5876 5875 5874 5873 5872 5870 5869 5868 5867 5865 5863 5861 5859
5902 5902 5901 5901 5900 5899 5898 5897 5896 5895 5894 5893 5892 5892 5890 5889 5888 5887 5886 5885 5884 5882 5881 5880 5878 5877 5876 5875 5874 5873 5872 5871 5870 5869 5868 5866 5865 5863 5862 5860 5858 5856 5854
5899 5898 5898 5897 5896 5896 5895 5894 5893 5892 5891 5890 5889 5888 5887 5885 5883 5883 5882 5881 5879 5878 5877 5875 5874 5874 5873 5871 5870 5870 5869 5868 5866 5865 5863 5862 5860 5858 5857 5855 5852 5850 5848
5895 5895 5895 5894 5893 5892 5891 5890 5889 5888 5887 5886 5885 5883 5882 5880 5879 5877 5877 5876 5875 5873 5872 5871 5870 5869 5869 5867 5866 5866 5865 5863 5862 5861 5859 5857 5855 5853 5851 5849 5847 5845 5842
5891 5891 5891 5890 5889 5889 5888 5887 5886 5884 5883 5882 5881 5879 5877 5876 5875 5874 5873 5871 5870 5869 5868 5867 5866 5865 5864 5863 5862 5861 5860 5859 5857 5856 5854 5852 5850 5848 5846 5844 5841 5839 5836
5887 5887 5886 5886 5885 5884 5883 5882 5882 5880 5879 5878 5877 5875 5873 5872 5871 5870 5869 5867 5866 5865 5864 5863 5862 5861 5860 5858 5857 5856 5855 5854 5852 5850 5849 5847 5845 5842 5840 5838 5835 5832 5829
5882 5882 5882 5881 5880 5880 5879 5878 5877 5876 5876 5875 5874 5872 5870 5868 5867 5866 5865 5864 5862 5861 5860 5859 5858 5857 5856 5854 5853 5852 5851 5849 5847 5845 5844 5841 5839 5837 5834 5831 5829 5826 5823
5877 5878 5878 5877 5876 5876 5875 5874 5873 5873 5872 5871 5870 5869 5867 5866 5864 5863 5861 5860 5859 5857 5856 5855 5854 5853 5852 5850 5849 5848 5846 5845 5843 5841 5838 5835 5833 5831 5828 5825 5822 5819 5816
5872 5873 5874 5873 5873 5872 5871 5871 5870 5869 5868 5867 5866 5865 5864 5862 5860 5859 5858 5857 5856 5855 5853 5852 5851 5850 5848 5847 5845 5843 5842 5840 5838 5836 5833 5830 5827 5824 5821 5818 5816 5813 5809
5868 5869 5869 5869 5868 5868 5868 5867 5866 5865 5864 5863 5862 5861 5860 5859 5857 5856 5855 5854 5853 5851 5850 5849 5848 5846 5845 5843 5841 5840 5838 5835 5833 5831 5828 5825 5822 5819 5816 5813 5810 5806 5803
5862 5863 5864 5864 5864 5864 5864 5863 5862 5861 5860 5859 5858 5857 5856 5855 5854 5853 5852 5851 5849 5848 5846 5845 5844 5843 5841 5839 5837 5835 5833 5831 5828 5826 5823 5820 5817 5814 5810 5807 5804 5800 5797
5857 5858 5858 5859 5859 5859 5859 5859 5858 5857 5856 5855 5854 5853 5852 5851 5850 5849 5848 5847 5846 5844 5843 5841 5840 5838 5837 5835 5833 5831 5829 5826 5824 5821 5818 5815 5811 5808 5805 5801 5798 5794 5790
5851 5852 5853 5853 5853 5854 5854 5854 5853 5853 5852 5851 5850 5849 5848 5847 5846 5845 5844 5843 5842 5840 5839 5837 5836 5834 5832 5830 5828 5826 5824 5821 5818 5815 5812 5809 5806 5802 5799 5795 5791 5787 5784
5846 5847 5848 5848 5848 5848 5849 5849 5848 5848 5847 5847 5846 5845 5844 5843 5842 5841 5840 5839 5838 5836 5835 5833 5831 5829 5828 5825 5823 5821 5819 5816 5813 5810 5806 5803 5800 5796 5792 5789 5785 5781 5777